#timestamp,LO_Frequency,Hit,StdDev 
1618284655.7,286047008.3,P
1618284675.6,286047006.5,P
1618284695.4,286047008.4,P
1618284715.2,286047008.4,Y
1618284735.1,286047001.2,P
1618284736.0,286047001.2,N
1618284755.8,286046996.5,N
1618284775.7,286046997.7,N
1618284795.5,286046995.2,N
1618284815.3,286046999.6,N
1618284835.2,286046997.4,N
1618284855.9,286046993.4,N
1618284875.7,286046997.8,N
1618284895.6,286046996.8,N
1618284915.4,286046997.4,N
1618284935.3,286046997.4,N
1618284955.1,286046997.4,N
1618284956.0,286046997.4,N
1618284975.8,286046994.9,N
1618284995.7,286046994.5,N
1618285015.5,286046994.7,N
1618285035.3,286046993.0,N
1618285055.2,286046994.0,N
1618285075.0,286046994.1,N
1618285075.9,286046994.1,N
1618285095.8,286046992.3,N
1618285115.6,286046992.3,N
1618285135.4,286046992.5,N
1618285155.3,286046993.2,N
1618285175.1,286046993.2,N
1618285225.9,286046990.4,E
1618285235.8,286046996.0,N
1618285255.6,286046998.1,P
1618285275.5,286046999.7,N
1618285295.3,286046999.8,N
1618285315.1,286047000.7,N
1618285335.9,286047000.8,N
1618285355.7,286046998.2,N
1618285375.6,286046999.0,N
1618285395.4,286046996.7,N
1618285415.2,286046995.4,N
1618285435.1,286046994.9,N
1618285436.0,286046994.9,N
1618285455.8,286046997.3,N
1618285475.6,286046995.3,N
1618285495.5,286046995.1,N
1618285515.3,286046999.6,N
1618285535.2,286046995.5,N
1618285555.9,286046999.2,N
1618285575.7,286046999.4,N
1618285595.6,286046999.5,N
1618285615.4,286046998.8,N
1618285635.2,286046999.1,N
1618285655.1,286046997.2,N
1618285656.0,286046997.2,N
1618285675.8,286046997.2,N
1618285695.7,286046997.5,N
1618285715.5,286046997.5,N
1618285735.3,286046995.5,N
1618285755.2,286046996.3,N
1618285775.0,286046995.9,N
1618285775.9,286046995.9,N
1618285795.8,286046995.0,N
1618285815.6,286046995.0,N
1618285835.4,286046995.2,N
1618285855.3,286046995.4,N
1618285875.1,286046994.9,N
1618285895.8,286046994.9,Y
1618285915.7,286046998.8,P
1618285935.5,286046998.1,N
1618285955.4,286046999.0,N
1618285975.2,286046998.4,N
1618285995.0,286047001.2,N
1618285995.9,286047001.2,N
1618286015.8,286046998.7,N
1618286035.6,286046999.0,N
1618286055.5,286046999.0,N
1618286075.3,286046996.5,N
1618286095.1,286046998.4,N
1618286115.9,286047001.1,N
1618286135.7,286047000.7,N
1618286155.5,286046999.4,N
1618286175.4,286047001.0,N
1618286195.2,286047000.1,N
1618286215.1,286046999.7,N
1618286216.0,286046999.7,N
1618286235.8,286047001.0,N
1618286255.6,286046999.9,N
1618286275.5,286046999.8,N
1618286295.3,286047002.8,N
1618286315.1,286047002.7,N
1618286335.9,286046999.8,N
1618286355.7,286047002.8,N
1618286375.6,286047001.0,N
1618286395.4,286047000.4,N
